SCP
-0 -0 -0 -0 -0 -0 -0 -0 -0 -0 -0 -0 -0 -0 -0 -0 -0 -0 -0 -0 -0 -0 0 0 0 0 0 0 0 0 0 0 0 0 0 -0 -0 -0 -0 -0 -0 -0 0
0 -0 -0 -0 -0 -0 -0 -0 -0 -0 -0 -0 -0 -0 -0 -0 -0 -0 -0 -0 -0 -0 -0 0 -0 0 0 0 0 0 0 0 0 0 0 0 -0 -0 -0 0 0 -0 0
-0 -0 -0 -0 -0 -0 -0 -0 -0 -0 -0 -0 -0 -0 -0 -0 -0 -0 -0 -0 -0 0 0 -0 -0 -0 0 0 0 0 0 0 0 0 0 0 -0 0 -0 0 0 -0 0
0 -0 -0 -0 -0 -0 -0 -0 -0 -0 -0 -0 -0 -0 -0 -0 -0 -0 -0 0 0 0 0 0 0 0 0 0 0 0 0 0 0 0 0 0 0 0 0 0 -0 0 0
0 0 0 0 -0 -0 -0 -0 -0 -0 -0 -0 -0 -0 -0 0 0 0 0 0 0 0 0 0 0 0 0 0 0 0 0 0 0 0 0 0 0 0 0 0 0 0 0
0 0 0 0 0 0 0 0 0 0 -0 -0 0 0 -0 -0 -0 0 0 0 0 0 0 0 0 0 0 0 0 0 0 0 0 0 0 0 0 0 0 0 0 0 0
0 0 0 0 0 0 0 0 0 0 0 0 0 0 0 0 0 0 0 0 0 0 0 0 0 0 0 0 0 0 0 0 0 0 0 0 0 0 0 0 0 0 0
0 0 0 0 0 0 0 0 0 0 0 0 0 0 0 0 0 0 0 0 0 0 0 0 0 0 0 0 0 0 0 0 0 0 0 0 0 0 0 0 1 0 0
0 0 0 0 0 0 0 0 0 0 0 0 0 0 0 0 0 0 0 0 0 0 0 0 0 0 0 0 0 0 0 0 0 0 0 0 0 0 0 0 1 1 0
0 0 0 0 0 0 0 0 0 0 0 0 0 0 0 0 0 0 0 0 0 0 0 0 0 0 0 0 0 0 0 0 0 0 0 0 0 0 0 0 0 1 1
0 0 0 0 0 0 0 0 0 0 0 0 0 0 0 0 0 0 0 0 0 0 0 0 0 0 0 0 0 0 0 0 0 0 0 0 0 0 0 0 0 1 1
0 0 0 0 0 0 0 0 0 0 0 0 0 0 0 0 0 0 0 0 0 0 0 0 0 0 0 0 0 0 0 0 0 0 0 0 0 0 0 0 0 1 1
0 0 0 0 0 0 0 0 0 0 0 0 0 0 0 0 0 0 0 0 0 0 0 0 0 0 0 0 0 0 0 0 0 0 0 0 0 0 0 0 0 1 1
0 0 0 0 0 0 0 0 0 0 0 0 0 0 0 0 0 0 0 0 0 0 0 0 0 0 0 0 0 0 0 0 0 0 0 0 0 0 0 0 0 1 1
0 0 0 0 0 0 0 0 0 0 0 0 0 0 0 0 0 0 0 0 0 0 0 0 0 0 0 0 0 0 0 0 0 0 0 0 0 0 0 0 0 0 1
0 0 0 0 0 0 0 0 0 0 0 0 0 0 0 0 0 0 0 0 0 0 0 0 0 -0 0 0 0 0 0 0 0 0 0 0 0 0 0 0 0 0 0
0 0 0 0 0 0 0 0 0 0 0 0 0 0 0 0 0 0 0 0 0 0 0 -0 -0 -0 -0 0 0 0 0 0 0 0 0 0 0 0 0 0 0 0 0
0 0 0 0 0 0 0 0 0 0 0 0 0 0 0 0 0 0 0 0 0 0 0 0 -0 -0 -0 0 0 0 0 0 0 0 0 0 0 0 0 0 0 0 0
0 0 0 0 0 0 0 0 0 0 0 0 0 0 0 0 0 0 0 0 0 0 0 0 0 0 -0 -0 0 0 0 0 0 0 0 0 0 0 0 0 0 0 0
0 0 0 0 0 0 0 0 0 0 0 0 0 0 0 0 0 0 0 0 0 0 0 0 0 0 0 -0 -0 0 -0 0 0 -0 -0 0 0 0 0 0 0 0 0
0 0 0 0 0 0 0 0 0 0 0 0 0 0 0 0 0 0 0 0 0 0 0 0 0 0 0 0 -0 -0 -0 -0 -0 -0 -0 -0 -0 -0 -0 -0 0 0 0
0 0 0 0 0 0 0 0 0 0 0 0 0 0 0 0 0 0 0 0 0 0 0 0 0 0 0 0 -0 -0 -0 -0 -0 0 0 0 -0 -0 -0 -0 -0 0 0
0 0 0 0 0 0 0 0 0 0 0 0 0 0 0 0 0 0 0 0 0 0 0 0 0 0 0 0 0 0 0 0 -0 -0 0 -0 -0 -0 -0 -0 -0 0 0
0 0 0 0 0 0 0 0 0 0 0 0 0 0 0 0 0 0 0 0 0 0 0 0 0 0 0 0 0 0 0 0 0 0 0 0 0 -0 -0 -0 -0 -0 -0
0 0 0 0 0 0 0 0 0 0 0 0 0 0 0 0 0 0 0 0 0 0 0 0 0 0 0 0 0 0 0 0 0 0 0 0 0 0 0 -0 -0 -0 -0
0 0 0 0 0 0 0 0 0 0 0 0 0 0 0 0 0 0 0 0 0 0 0 0 0 0 0 0 0 0 0 0 0 0 0 0 0 0 0 0 0 -0 -0
Wind_Speed_500mb
3 3 3 1 5 1 6 8 12 11 12 12 12 12 11 10 10 10 11 12 12 13 15 16 18 17 16 20 19 20 23 23 24 25 22 23 24 23 24 25 24 24 24
10 5 5 7 7 5 6 6 9 13 14 16 17 18 17 15 13 13 12 15 16 15 13 15 15 19 22 19 21 22 23 27 28 28 30 29 28 25 26 27 27 26 26
8 1 5 8 9 13 13 14 15 16 16 19 20 21 21 22 21 22 20 19 19 20 19 19 19 18 19 23 24 23 25 25 29 31 32 34 25 33 28 31 27 29 30
6 1 5 7 7 9 11 14 17 20 23 24 26 26 28 27 29 29 28 27 27 26 26 24 25 25 25 26 27 26 23 29 28 31 32 28 27 33 31 32 30 30 30
8 7 7 4 6 8 8 10 17 21 24 27 29 31 34 34 31 28 30 34 34 34 34 34 36 34 33 33 33 32 30 29 32 33 33 35 31 31 33 34 32 32 32
14 13 7 5 6 3 3 5 8 10 15 18 22 24 30 33 36 34 36 36 36 38 39 40 42 41 42 43 40 39 38 34 35 30 31 33 39 42 39 37 37 34 35
19 15 12 8 4 6 8 9 10 12 14 17 20 21 26 27 31 33 36 39 41 42 41 42 46 45 45 46 48 47 45 45 43 38 34 35 38 43 44 40 42 40 39
24 18 13 11 11 12 13 14 15 15 17 18 19 22 25 28 30 32 36 38 40 42 45 49 51 49 48 50 51 51 53 53 52 40 38 39 40 42 46 46 45 47 46
26 20 17 17 15 16 15 14 13 14 15 17 18 20 22 25 28 31 36 39 44 45 44 46 50 56 57 57 56 57 57 57 57 60 54 47 45 50 46 50 50 52 52
32 29 27 25 23 19 16 13 9 6 8 11 13 14 16 18 21 25 29 33 38 40 42 46 51 53 53 58 62 63 62 60 57 56 50 52 63 59 53 51 54 55 57
40 37 35 32 27 23 20 15 11 8 8 8 9 10 13 16 20 23 27 31 35 37 41 43 44 46 51 57 60 65 66 66 70 67 51 48 64 66 65 60 56 60 60
48 45 40 36 31 28 24 17 12 8 7 6 7 9 13 17 22 26 28 29 31 35 39 42 44 45 46 48 53 59 62 69 71 73 74 62 60 70 71 70 65 63 66
51 49 44 39 34 30 24 19 16 11 9 9 9 12 16 21 26 29 31 33 36 37 38 40 42 44 45 47 47 48 52 61 68 75 81 80 80 77 74 74 74 69 70
58 52 46 40 34 30 25 21 16 14 11 11 12 15 18 23 27 31 34 37 40 41 42 44 45 47 47 48 50 50 51 53 57 69 78 81 85 83 83 81 79 77 75
63 57 51 45 39 34 30 24 21 17 13 13 15 16 19 24 29 33 36 39 42 45 47 48 50 50 51 54 57 57 55 55 59 63 69 80 83 86 86 82 84 85 79
67 62 56 49 43 37 31 28 24 20 16 16 17 18 20 25 31 36 40 43 46 49 53 54 56 57 57 58 57 60 64 65 61 62 68 72 78 84 89 89 86 87 91
72 65 60 53 47 40 37 36 29 23 18 18 18 19 23 29 34 38 42 46 51 55 59 61 62 63 65 65 66 66 65 67 73 71 68 71 75 81 84 93 95 90 91
74 72 64 57 51 46 43 38 30 23 20 19 17 19 24 29 34 38 43 48 52 56 60 63 66 68 69 70 74 74 75 76 74 77 79 76 78 77 84 87 93 100 96
78 71 64 58 53 48 43 38 31 25 24 21 19 20 24 29 33 39 44 51 54 58 61 64 66 69 73 75 76 79 82 83 82 80 81 84 83 85 85 86 92 93 104
80 73 66 62 57 50 44 41 36 32 29 24 20 21 25 31 37 42 47 53 56 59 63 66 69 67 69 70 79 89 81 83 82 75 70 71 76 78 77 82 85 98 96
81 76 72 68 61 53 50 48 45 40 33 28 25 23 26 32 38 44 49 51 56 60 64 68 69 72 67 70 83 88 93 56 56 60 44 53 68 79 91 88 82 82 97
88 83 78 72 65 59 58 57 54 47 40 33 27 24 27 34 39 45 48 49 56 63 65 67 70 71 71 64 63 69 46 87 11 42 81 72 63 74 74 63 67 80 85
93 90 85 76 70 67 64 61 58 52 44 34 28 28 32 34 40 43 45 50 56 63 66 69 70 71 72 68 58 40 34 34 88 71 67 77 54 63 71 79 88 73 75
96 91 86 80 73 70 67 63 61 55 44 36 33 33 33 36 39 44 46 50 59 64 69 72 73 73 73 72 61 53 49 56 37 76 87 76 89 76 84 79 82 90 102
83 91 87 82 78 75 70 64 60 54 45 40 36 34 36 37 40 44 47 53 60 66 70 73 74 76 76 75 66 62 62 62 60 60 99 104 80 83 93 94 74 87 92
66 84 88 87 84 79 73 67 61 52 44 41 37 37 36 40 43 44 47 58 64 69 73 75 76 76 77 78 73 69 62 49 50 53 64 110 99 105 94 101 100 93 91
Wind_Direction_500mb
208 269 328 298 18 204 217 246 241 247 244 247 262 272 282 283 286 291 303 303 303 301 311 319 321 313 303 294 287 281 283 284 285 282 281 283 276 283 282 279 271 264 259
195 225 307 289 270 267 242 226 231 232 232 236 244 252 260 260 272 270 285 274 273 282 289 297 304 311 315 307 296 286 276 280 282 279 280 275 273 271 279 276 274 261 261
195 203 277 265 263 283 280 267 252 239 238 244 251 258 262 266 263 261 258 260 261 264 272 275 278 286 293 300 304 296 290 277 275 278 275 278 277 273 268 272 273 269 256
189 67 307 321 306 285 272 270 265 262 266 271 273 273 272 273 272 279 280 277 274 270 266 267 270 276 277 279 285 294 295 296 284 277 274 276 275 271 259 266 270 268 258
184 210 247 294 294 289 289 285 268 267 269 273 278 282 287 285 282 285 286 284 282 277 275 275 271 267 269 272 274 280 286 283 286 285 281 270 273 273 267 263 265 264 260
192 197 193 205 236 263 316 293 283 277 277 278 279 281 278 282 286 282 276 275 278 280 281 280 280 279 277 272 271 271 274 276 278 284 282 280 268 269 271 265 263 257 260
188 182 181 205 256 289 296 292 294 291 286 284 283 285 285 287 289 290 288 284 278 273 272 274 277 276 277 275 273 272 269 270 273 272 277 276 275 265 267 262 258 257 252
192 199 207 238 263 280 289 290 294 297 298 296 297 298 299 301 298 296 293 291 290 288 283 277 273 271 270 271 273 273 272 272 271 275 272 274 271 268 263 262 255 256 251
204 213 225 236 242 250 263 273 279 290 303 311 316 319 319 316 314 310 306 305 299 294 289 283 279 275 272 270 270 271 273 273 275 276 273 272 270 263 265 259 256 253 252
211 214 221 227 232 237 241 243 247 272 307 318 321 327 331 331 328 324 321 317 316 314 308 297 289 286 281 275 273 271 271 273 277 275 274 271 269 265 261 260 255 253 251
212 216 219 223 227 232 235 230 235 262 288 309 327 334 332 333 332 332 331 331 329 326 321 317 314 304 292 282 279 275 273 269 269 269 272 270 270 268 263 257 254 252 250
214 218 219 220 223 225 227 231 240 248 268 291 302 320 331 335 334 334 334 332 330 328 326 322 318 315 310 303 293 283 278 275 271 270 268 264 270 268 265 260 255 250 250
218 218 219 220 221 223 226 233 239 249 263 280 306 322 327 332 332 332 332 332 332 331 330 329 327 325 322 316 309 301 291 282 279 277 272 271 271 271 265 261 257 252 249
218 222 222 222 224 228 230 233 241 254 271 294 307 314 320 326 329 328 327 328 330 331 332 330 328 326 323 320 316 310 303 294 286 278 275 272 268 268 268 265 258 254 249
220 222 222 223 224 227 229 233 243 250 261 280 290 300 313 319 323 324 327 328 329 328 327 325 324 324 321 318 316 312 307 301 294 286 281 276 272 268 265 264 262 256 252
221 222 223 224 226 228 231 236 240 243 255 272 287 298 308 317 323 327 327 326 325 323 322 322 321 319 317 315 312 310 308 304 299 293 288 282 278 269 266 266 261 258 254
223 223 224 225 227 227 229 233 234 241 256 271 283 296 313 321 322 322 322 321 320 320 322 321 319 318 316 314 313 310 305 303 301 298 293 288 282 278 271 263 263 260 256
224 224 223 224 226 227 230 232 232 240 253 265 280 300 312 314 316 317 317 318 319 321 320 317 318 317 316 316 315 313 309 307 303 298 296 293 288 284 278 274 264 259 258
224 222 223 224 226 230 232 233 234 240 246 255 268 292 304 309 313 314 318 316 318 318 318 318 319 320 320 319 315 313 312 308 304 301 297 295 292 288 284 277 272 265 259
224 223 224 227 229 231 232 233 233 236 239 247 264 284 301 311 315 316 315 314 319 321 322 322 321 320 320 319 316 316 314 310 307 302 301 297 294 291 286 281 273 269 264
224 224 225 226 229 229 230 230 229 231 232 242 257 283 304 310 311 313 313 317 320 321 321 320 319 319 317 318 319 315 316 323 312 312 304 305 305 299 296 288 283 276 267
227 226 226 227 229 230 232 231 229 228 232 241 255 281 297 299 310 310 309 319 319 315 315 316 317 315 313 315 316 317 321 315 321 285 298 295 291 294 296 289 289 284 273
226 227 228 228 231 232 231 231 230 229 234 243 260 275 287 306 304 302 311 316 313 311 312 313 312 309 307 306 306 297 312 297 314 308 290 305 303 292 289 286 289 277 279
230 229 229 230 230 232 232 231 229 230 235 245 257 276 291 294 299 305 308 310 307 310 313 309 306 302 300 297 294 289 277 282 298 306 293 290 294 294 292 290 280 275 282
230 231 229 229 230 231 232 231 231 234 241 251 263 277 287 295 300 299 306 310 310 308 305 303 301 297 293 288 285 281 279 279 271 269 286 293 289 287 285 293 289 277 278
230 232 229 229 230 231 230 230 232 237 244 255 268 277 289 294 295 303 311 308 306 305 305 302 297 294 290 288 284 280 276 264 265 264 265 281 286 286 283 282 275 274 275
Wind_Speed_850mb
3 3 3 1 5 1 6 8 12 11 12 12 12 12 11 10 10 10 11 12 12 13 15 16 18 17 16 20 19 20 23 23 24 25 22 23 24 23 24 25 24 24 24
10 5 5 7 7 5 6 6 9 13 14 16 17 18 17 15 13 13 12 15 16 15 13 15 15 19 22 19 21 22 23 27 28 28 30 29 28 25 26 27 27 26 26
8 1 5 8 9 13 13 14 15 16 16 19 20 21 21 22 21 22 20 19 19 20 19 19 19 18 19 23 24 23 25 25 29 31 32 34 25 33 28 31 27 29 30
6 1 5 7 7 9 11 14 17 20 23 24 26 26 28 27 29 29 28 27 27 26 26 24 25 25 25 26 27 26 23 29 28 31 32 28 27 33 31 32 30 30 30
8 7 7 4 6 8 8 10 17 21 24 27 29 31 34 34 31 28 30 34 34 34 34 34 36 34 33 33 33 32 30 29 32 33 33 35 31 31 33 34 32 32 32
14 13 7 5 6 3 3 5 8 10 15 18 22 24 30 33 36 34 36 36 36 38 39 40 42 41 42 43 40 39 38 34 35 30 31 33 39 42 39 37 37 34 35
19 15 12 8 4 6 8 9 10 12 14 17 20 21 26 27 31 33 36 39 41 42 41 42 46 45 45 46 48 47 45 45 43 38 34 35 38 43 44 40 42 40 39
24 18 13 11 11 12 13 14 15 15 17 18 19 22 25 28 30 32 36 38 40 42 45 49 51 49 48 50 51 51 53 53 52 40 38 39 40 42 46 46 45 47 46
26 20 17 17 15 16 15 14 13 14 15 17 18 20 22 25 28 31 36 39 44 45 44 46 50 56 57 57 56 57 57 57 57 60 54 47 45 50 46 50 50 52 52
32 29 27 25 23 19 16 13 9 6 8 11 13 14 16 18 21 25 29 33 38 40 42 46 51 53 53 58 62 63 62 60 57 56 50 52 63 59 53 51 54 55 57
40 37 35 32 27 23 20 15 11 8 8 8 9 10 13 16 20 23 27 31 35 37 41 43 44 46 51 57 60 65 66 66 70 67 51 48 64 66 65 60 56 60 60
48 45 40 36 31 28 24 17 12 8 7 6 7 9 13 17 22 26 28 29 31 35 39 42 44 45 46 48 53 59 62 69 71 73 74 62 60 70 71 70 65 63 66
51 49 44 39 34 30 24 19 16 11 9 9 9 12 16 21 26 29 31 33 36 37 38 40 42 44 45 47 47 48 52 61 68 75 81 80 80 77 74 74 74 69 70
58 52 46 40 34 30 25 21 16 14 11 11 12 15 18 23 27 31 34 37 40 41 42 44 45 47 47 48 50 50 51 53 57 69 78 81 85 83 83 81 79 77 75
63 57 51 45 39 34 30 24 21 17 13 13 15 16 19 24 29 33 36 39 42 45 47 48 50 50 51 54 57 57 55 55 59 63 69 80 83 86 86 82 84 85 79
67 62 56 49 43 37 31 28 24 20 16 16 17 18 20 25 31 36 40 43 46 49 53 54 56 57 57 58 57 60 64 65 61 62 68 72 78 84 89 89 86 87 91
72 65 60 53 47 40 37 36 29 23 18 18 18 19 23 29 34 38 42 46 51 55 59 61 62 63 65 65 66 66 65 67 73 71 68 71 75 81 84 93 95 90 91
74 72 64 57 51 46 43 38 30 23 20 19 17 19 24 29 34 38 43 48 52 56 60 63 66 68 69 70 74 74 75 76 74 77 79 76 78 77 84 87 93 100 96
78 71 64 58 53 48 43 38 31 25 24 21 19 20 24 29 33 39 44 51 54 58 61 64 66 69 73 75 76 79 82 83 82 80 81 84 83 85 85 86 92 93 104
80 73 66 62 57 50 44 41 36 32 29 24 20 21 25 31 37 42 47 53 56 59 63 66 69 67 69 70 79 89 81 83 82 75 70 71 76 78 77 82 85 98 96
81 76 72 68 61 53 50 48 45 40 33 28 25 23 26 32 38 44 49 51 56 60 64 68 69 72 67 70 83 88 93 56 56 60 44 53 68 79 91 88 82 82 97
88 83 78 72 65 59 58 57 54 47 40 33 27 24 27 34 39 45 48 49 56 63 65 67 70 71 71 64 63 69 46 87 11 42 81 72 63 74 74 63 67 80 85
93 90 85 76 70 67 64 61 58 52 44 34 28 28 32 34 40 43 45 50 56 63 66 69 70 71 72 68 58 40 34 34 88 71 67 77 54 63 71 79 88 73 75
96 91 86 80 73 70 67 63 61 55 44 36 33 33 33 36 39 44 46 50 59 64 69 72 73 73 73 72 61 53 49 56 37 76 87 76 89 76 84 79 82 90 102
83 91 87 82 78 75 70 64 60 54 45 40 36 34 36 37 40 44 47 53 60 66 70 73 74 76 76 75 66 62 62 62 60 60 99 104 80 83 93 94 74 87 92
66 84 88 87 84 79 73 67 61 52 44 41 37 37 36 40 43 44 47 58 64 69 73 75 76 76 77 78 73 69 62 49 50 53 64 110 99 105 94 101 100 93 91
Wind_Direction_850mb
208 269 328 298 18 204 217 246 241 247 244 247 262 272 282 283 286 291 303 303 303 301 311 319 321 313 303 294 287 281 283 284 285 282 281 283 276 283 282 279 271 264 259
195 225 307 289 270 267 242 226 231 232 232 236 244 252 260 260 272 270 285 274 273 282 289 297 304 311 315 307 296 286 276 280 282 279 280 275 273 271 279 276 274 261 261
195 203 277 265 263 283 280 267 252 239 238 244 251 258 262 266 263 261 258 260 261 264 272 275 278 286 293 300 304 296 290 277 275 278 275 278 277 273 268 272 273 269 256
189 67 307 321 306 285 272 270 265 262 266 271 273 273 272 273 272 279 280 277 274 270 266 267 270 276 277 279 285 294 295 296 284 277 274 276 275 271 259 266 270 268 258
184 210 247 294 294 289 289 285 268 267 269 273 278 282 287 285 282 285 286 284 282 277 275 275 271 267 269 272 274 280 286 283 286 285 281 270 273 273 267 263 265 264 260
192 197 193 205 236 263 316 293 283 277 277 278 279 281 278 282 286 282 276 275 278 280 281 280 280 279 277 272 271 271 274 276 278 284 282 280 268 269 271 265 263 257 260
188 182 181 205 256 289 296 292 294 291 286 284 283 285 285 287 289 290 288 284 278 273 272 274 277 276 277 275 273 272 269 270 273 272 277 276 275 265 267 262 258 257 252
192 199 207 238 263 280 289 290 294 297 298 296 297 298 299 301 298 296 293 291 290 288 283 277 273 271 270 271 273 273 272 272 271 275 272 274 271 268 263 262 255 256 251
204 213 225 236 242 250 263 273 279 290 303 311 316 319 319 316 314 310 306 305 299 294 289 283 279 275 272 270 270 271 273 273 275 276 273 272 270 263 265 259 256 253 252
211 214 221 227 232 237 241 243 247 272 307 318 321 327 331 331 328 324 321 317 316 314 308 297 289 286 281 275 273 271 271 273 277 275 274 271 269 265 261 260 255 253 251
212 216 219 223 227 232 235 230 235 262 288 309 327 334 332 333 332 332 331 331 329 326 321 317 314 304 292 282 279 275 273 269 269 269 272 270 270 268 263 257 254 252 250
214 218 219 220 223 225 227 231 240 248 268 291 302 320 331 335 334 334 334 332 330 328 326 322 318 315 310 303 293 283 278 275 271 270 268 264 270 268 265 260 255 250 250
218 218 219 220 221 223 226 233 239 249 263 280 306 322 327 332 332 332 332 332 332 331 330 329 327 325 322 316 309 301 291 282 279 277 272 271 271 271 265 261 257 252 249
218 222 222 222 224 228 230 233 241 254 271 294 307 314 320 326 329 328 327 328 330 331 332 330 328 326 323 320 316 310 303 294 286 278 275 272 268 268 268 265 258 254 249
220 222 222 223 224 227 229 233 243 250 261 280 290 300 313 319 323 324 327 328 329 328 327 325 324 324 321 318 316 312 307 301 294 286 281 276 272 268 265 264 262 256 252
221 222 223 224 226 228 231 236 240 243 255 272 287 298 308 317 323 327 327 326 325 323 322 322 321 319 317 315 312 310 308 304 299 293 288 282 278 269 266 266 261 258 254
223 223 224 225 227 227 229 233 234 241 256 271 283 296 313 321 322 322 322 321 320 320 322 321 319 318 316 314 313 310 305 303 301 298 293 288 282 278 271 263 263 260 256
224 224 223 224 226 227 230 232 232 240 253 265 280 300 312 314 316 317 317 318 319 321 320 317 318 317 316 316 315 313 309 307 303 298 296 293 288 284 278 274 264 259 258
224 222 223 224 226 230 232 233 234 240 246 255 268 292 304 309 313 314 318 316 318 318 318 318 319 320 320 319 315 313 312 308 304 301 297 295 292 288 284 277 272 265 259
224 223 224 227 229 231 232 233 233 236 239 247 264 284 301 311 315 316 315 314 319 321 322 322 321 320 320 319 316 316 314 310 307 302 301 297 294 291 286 281 273 269 264
224 224 225 226 229 229 230 230 229 231 232 242 257 283 304 310 311 313 313 317 320 321 321 320 319 319 317 318 319 315 316 323 312 312 304 305 305 299 296 288 283 276 267
227 226 226 227 229 230 232 231 229 228 232 241 255 281 297 299 310 310 309 319 319 315 315 316 317 315 313 315 316 317 321 315 321 285 298 295 291 294 296 289 289 284 273
226 227 228 228 231 232 231 231 230 229 234 243 260 275 287 306 304 302 311 316 313 311 312 313 312 309 307 306 306 297 312 297 314 308 290 305 303 292 289 286 289 277 279
230 229 229 230 230 232 232 231 229 230 235 245 257 276 291 294 299 305 308 310 307 310 313 309 306 302 300 297 294 289 277 282 298 306 293 290 294 294 292 290 280 275 282
230 231 229 229 230 231 232 231 231 234 241 251 263 277 287 295 300 299 306 310 310 308 305 303 301 297 293 288 285 281 279 279 271 269 286 293 289 287 285 293 289 277 278
230 232 229 229 230 231 230 230 232 237 244 255 268 277 289 294 295 303 311 308 306 305 305 302 297 294 290 288 284 280 276 264 265 264 265 281 286 286 283 282 275 274 275